Вернуться в каталог

SL-14 DEB

АктивенPO
NORAD 39969·DEBRIS·🇷🇺 Russia

Запущен Aug 18, 1987 с Plesetsk Cosmodrome

Loading…

Ближайшие Пролёты (ближайшие 24 часа)

TLE

СвежийSource: Space-Track

Эпоха: Sep 14, 2026, 11:21 UTC

1 39969U 87068CV  26257.47346863  .00003858  00000-0  10375-2 0  9990
2 39969  82.4969 165.9579 0006034 320.0131  40.0620 14.47867544638011

Отслеживайте SL-14 DEB в реальном времени с AllMySat

Download on the App Store